Tracking 18917 objects as of 16-Jan-2018
HD Live streaming from Space Station
objects crossing your sky now

FENGYUN 1C DEB

Track FENGYUN 1C DEB now!
10-day predictions


NORAD ID: 41000
Int'l Code: 1999-025EXE
Perigee: 758.4 km
Apogee: 1,341.2 km
Inclination: 97.5 °
Period: 106.0 minutes
Semi major axis: 7420 km
RCS: Unknown
Launch date: May 10, 1999
Source: People's Republic of China (PRC)
Launch site: Taiyaun Space Center, China (TSC)

Note: This is SATELLITE DEBRIS
aabbcc
Your satellite tracking list
Your tracking list is empty




NASA's NSSDC Master Catalog

Two Line Element Set (TLE):
1 41000U 99025EXE 18012.24699672  .00000394  00000-0  35461-3 0  9995
2 41000  97.5257 186.7285 0392714 229.1654 127.4825 13.58090771449450
Source of the keplerian elements: AFSPC